This demonstration page uses our WeatherBlox Daily Observations layout. Learn more.

Left ArrowRight Arrow

31.84235, -102.49876

Hourly Observations for May 21, 2021

Temp ( °F °C ) Dew Point ( °F °C ) Humidity (%) Winds ( mph kmh ) Pressure ( in mb ) Visibility ( mi km ) Precip ( " mm )
12:53 am 00:53 Clear 72 22.2 54 12.2 53 53 SSE 13 20 29.80 1009 10 16 0.00 0.00
1:53 am 01:53 Clear 70 21.1 55 12.8 59 59 SSE 14 22 29.81 1009 10 16 0.00 0.00
2:53 am 02:53 Mostly Clear 69 20.6 55 12.8 61 61 SSE 15 24 29.80 1009 10 16 0.00 0.00
3:53 am 03:53 Clear 67 19.4 55 12.8 66 66 SSE 14 22 29.79 1009 10 16 0.00 0.00
4:53 am 04:53 Clear 66 18.9 55 12.8 68 68 SSE 9 15 29.80 1009 10 16 0.00 0.00
5:53 am 05:53 Mostly Clear 65 18.3 56 13.3 73 73 SSE 10 17 29.81 1009 10 16 0.00 0.00
6:53 am 06:53 Sunny 63 17.2 56 13.3 78 78 SSE 9 15 29.83 1010 10 16 0.00 0.00
7:53 am 07:53 Sunny 66 18.9 58 14.4 75 75 SSE 13 20 29.84 1011 10 16 0.00 0.00
8:53 am 08:53 Sunny 69 20.6 59 15 70 70 SSE 17 28 29.88 1012 10 16 0.00 0.00
9:53 am 09:53 Sunny 73 22.8 60 15.6 64 64 S 22 35 29.89 1012 10 16 0.00 0.00
10:53 am 10:53 Sunny 77 25 60 15.6 56 56 SSE 23 37 29.88 1012 10 16 0.00 0.00
11:53 am 11:53 Sunny 81 27.2 59 15 47 47 SSE 20 31 29.88 1012 10 16 0.00 0.00
12:53 pm 12:53 Sunny 83 28.3 58 14.4 43 43 SE 24 39 29.88 1012 10 16 0.00 0.00
1:53 pm 13:53 Sunny 86 30 57 13.9 37 37 SSE 22 35 29.85 1011 10 16 0.00 0.00
2:53 pm 14:53 Sunny 90 32.2 56 13.3 32 32 SSE 21 33 29.85 1011 10 16 0.00 0.00
3:53 pm 15:53 Sunny 91 32.8 55 12.8 30 30 SSE 23 37 29.83 1010 10 16 0.00 0.00
4:53 pm 16:53 Sunny 91 32.8 54 12.2 28 28 SE 22 35 29.81 1010 10 16 0.00 0.00
5:53 pm 17:53 Sunny 90 32.2 52 11.1 27 27 SSE 25 41 29.80 1009 10 16 0.00 0.00
6:53 pm 18:53 Sunny 88 31.1 52 11.1 29 29 SSE 22 35 29.81 1010 10 16 0.00 0.00
7:53 pm 19:53 Sunny 86 30 52 11.1 31 31 SSE 20 31 29.82 1010 10 16 0.00 0.00
8:53 pm 20:53 Clear 83 28.3 53 11.7 36 36 SE 21 33 29.85 1011 10 16 0.00 0.00
9:53 pm 21:53 Clear 80 26.7 54 12.2 41 41 SE 14 22 29.87 1012 10 16 0.00 0.00
10:53 pm 22:53 Clear 78 25.6 54 12.2 43 43 SSE 20 31 29.90 1013 10 16 0.00 0.00
11:53 pm 23:53 Clear 76 24.4 55 12.8 48 48 SSE 18 30 29.92 1013 10 16 0.00 0.00

Powered by AerisWeather